Find Starlink 31880

NORAD ID: 59661 Int'l Des: 2024-084 Owner: SPXS Country: US Constellation: starlink operational
LEOCIRCULAR

Live Position

Loading 3D Globe...

About Starlink 31880

Description loading...

Upcoming Passes

Passes for default location (London). Set your location on the main map for personalized predictions.

Altitude History

Loading altitude history...

Two-Line Element Set

1 59661U 24084H 26129.22965697 .00004405 00000-0 16945-3 0 9992
2 59661 43.0013 56.2992 0000798 242.3198 117.7573 15.27589191113673
Epoch: May 9, 2026 • Age: 24 hours

Current Status

Altitude 483.3 km
Velocity 7.63 km/s
Sub-Earth Point 24.95°N, 134.19°E
Launch Date May 6, 2024
Age 2 years
Type internet

Technical Details

Classification Payload
Mass 730.00 kg
Dry Mass 700.00 kg
Total Mass 730.00 kg
Length 0.30 m
Diameter 4.10 m
Span 29.00 m
Shape Box + pan
Manufacturer SPXS
Bus Type Starlink V2M
Phase Status In Orbit
Owner/State SPXS/US

Most Searched